#timestamp,LO_Frequency,Hit,StdDev 
1587776415.1,286047003.8,N
1587776435.9,286047003.8,N
1587776455.7,286046999.9,N
1587776475.5,286047001.2,N
1587776495.4,286047000.3,N
1587776515.2,286047000.3,N
1587776535.1,286046997.4,N
1587776536.0,286046997.4,N
1587776555.8,286046993.3,Y
1587776575.6,286046993.7,P
1587776595.5,286046994.5,N
1587776615.3,286046995.9,N
1587776635.2,286046997.9,N
1587776655.9,286046995.0,N
1587776675.7,286046997.6,N
1587776695.6,286046997.7,N
1587776715.4,286046996.9,N
1587776735.2,286046997.3,N
1587776755.1,286046995.3,N
1587776756.0,286046995.3,N
1587776775.8,286046995.3,N
1587776795.7,286046995.3,N
1587776815.5,286046995.1,Y
1587776835.3,286046997.4,P
1587776855.2,286046996.5,P
1587776875.0,286046996.7,P
1587776875.9,286046996.7,Y
1587776895.8,286047001.0,P
1587776915.6,286047000.8,N
1587776935.4,286047000.7,N
1587776955.3,286047000.3,N
1587776975.1,286046999.7,N
1587776995.9,286047001.5,N
1587777015.7,286047002.0,N
1587777035.5,286047001.8,N
1587777055.4,286047001.5,N
1587777075.2,286047000.3,N
1587777095.0,286047002.2,N
1587777095.9,286047002.2,N
1587777115.8,286047004.0,N
1587777135.6,286047002.0,N
1587777155.5,286046999.9,N
1587777175.3,286047002.4,N
1587777195.1,286047000.1,N
1587777215.9,286047000.1,N
1587777235.7,286046998.2,N
1587777255.6,286046997.1,N
1587777275.4,286046997.1,N
1587777295.2,286046999.5,N
1587777315.1,286046999.5,N
1587777316.0,286046999.5,N
1587777335.8,286046998.7,N
1587777355.7,286046999.5,N
1587777375.5,286046998.4,N
1587777395.3,286047002.1,N
1587777415.2,286047004.1,N
1587777435.0,286047002.6,N
1587777435.9,286047002.6,N
1587777455.8,286046998.1,N
1587777475.6,286046998.5,N
1587777495.4,286047000.7,N
1587777515.3,286047001.0,N
1587777535.1,286047001.2,N
1587777555.8,286046998.9,N
1587777575.7,286046998.8,N
1587777595.5,286047002.2,N
1587777615.4,286047003.9,N
1587777635.2,286047000.0,N
1587777655.0,286047003.5,N
1587777655.9,286047003.5,N
1587777675.8,286047003.6,N
1587777695.6,286047002.5,N
1587777715.5,286047002.0,N
1587777735.3,286047000.6,N
1587777755.1,286046998.6,N
1587777775.9,286046999.5,N
1587777795.7,286046997.4,N
1587777815.5,286047001.0,N
1587777835.4,286047002.8,N
1587777855.2,286047001.6,N
1587777875.1,286047001.3,N
1587777876.0,286047001.3,N
1587777895.8,286047001.8,N
1587777915.6,286047000.6,N
1587777935.5,286047002.7,N
1587777955.3,286047004.4,N
1587777975.2,286047000.6,N
1587777995.9,286047003.9,N
1587778015.7,286047003.1,N
1587778035.6,286047005.2,N
1587778055.4,286047004.9,N
1587778075.2,286047006.5,Y
1587778095.1,286047005.7,P
1587778096.0,286047005.7,N
1587778115.8,286047003.2,N
1587778135.7,286047002.5,N
1587778155.5,286047001.8,N
1587778175.3,286047004.1,N
1587778195.2,286047001.8,N
1587778215.0,286047003.1,N
1587778215.9,286047003.1,N
1587778235.8,286047004.6,Y
1587778255.6,286046999.8,P
1587778275.4,286047002.4,N
1587778295.3,286046999.7,N
1587778315.1,286047002.0,N
1587778335.9,286047000.1,N
1587778355.7,286046998.5,N
1587778375.5,286046998.2,N
1587778395.4,286046999.2,N
1587778415.2,286046996.7,N
1587778435.0,286046999.2,N
1587778435.9,286046999.2,N
1587778455.8,286046998.3,N
1587778475.6,286046999.5,N
1587778495.5,286046997.1,N
1587778515.3,286046999.3,N
1587778535.1,286047001.2,N
1587778555.9,286047000.9,N
1587778575.7,286047001.4,N
1587778595.6,286047001.7,N
1587778615.4,286047001.2,N
1587778635.2,286047000.8,N
1587778655.1,286047000.2,N
1587778656.0,286047000.2,N
1587778675.8,286047001.9,N
1587778695.7,286047002.7,N
1587778715.5,286047002.7,N
1587778735.3,286047001.1,N
1587778755.2,286046998.8,N
1587778775.0,286046998.6,N
1587778775.9,286046998.6,N
1587778795.7,286046998.5,N
1587778815.6,286046999.3,N
1587778835.4,286046999.3,N
1587778855.3,286047000.1,N
1587778875.1,286047000.5,N
1587778895.8,286046998.2,N
1587778915.7,286046999.9,N
1587778935.5,286047000.6,N
1587778955.4,286046998.9,N
1587778975.2,286046997.3,N
1587778995.0,286047001.0,N
1587778995.9,286047001.0,N
1587779015.8,286047001.2,N
1587779035.6,286047000.8,N
1587779055.4,286047000.8,N
1587779075.3,286047000.1,N
1587779095.1,286047002.4,N
1587779115.9,286047000.7,N
1587779135.7,286047000.6,N
1587779155.5,286047001.2,N
1587779175.4,286047002.7,N
1587779195.2,286047001.4,N
1587779215.1,286047001.5,N
1587779216.0,286047001.5,N
1587779235.8,286047001.3,N
1587779255.6,286047003.9,N
1587779275.5,286047003.9,N
1587779295.3,286047001.9,N
1587779315.1,286047003.3,N
1587779335.9,286047004.7,N
1587779355.7,286047005.1,Y
1587779375.6,286047003.3,P
1587779395.4,286047003.6,P
1587779415.2,286047003.7,P
1587779435.1,286047000.4,N
1587779436.0,286047000.4,N
1587779455.8,286047000.9,N
1587779475.7,286047002.4,N
1587779495.5,286047002.4,N
1587779515.3,286047003.9,Y
1587779535.2,286047001.4,P
1587779555.0,286047001.0,P
1587779555.9,286047001.0,N
1587779575.8,286047000.6,N
1587779595.6,286047000.4,N
1587779615.4,286047002.3,Y
1587779635.3,286047000.9,P
1587779655.1,286046998.6,P
1587779675.9,286046999.5,N
1587779695.7,286046999.8,N
1587779715.5,286047000.7,N
1587779735.4,286046998.2,N
1587779755.2,286046999.9,N
1587779775.0,286046999.9,N
1587779776.0,286046999.9,N
1587779795.8,286046998.2,N
1587779815.6,286047000.8,N
1587779835.5,286047002.7,N
1587779855.3,286047000.7,N
1587779875.1,286047001.1,N
1587779895.9,286046996.8,N
1587779915.7,286046997.9,N
1587779935.6,286046996.6,N
1587779955.4,286046999.3,N
1587779975.2,286046999.1,N
1587779995.1,286046998.1,N
1587779996.0,286046998.1,N
